This demonstration page uses our WeatherBlox Daily Observations layout. Learn more.

Left ArrowRight Arrow

Hourly Observations for March 31, 2022

Temp ( °F °C ) Dew Point ( °F °C ) Humidity (%) Winds ( mph kmh ) Pressure ( in mb ) Visibility ( mi km ) Precip ( " mm )
12:56 am 00:56 Cloudy 27 -2.8 23 -5 85 85 NNW 18 30 29.80 1009 10 16 0.00 0.00
1:11 am 01:11 Cloudy 27 -3 23 -5 86 86 N 17 28 29.88 1012 10 16 0.00 0.00
1:36 am 01:36 Cloudy 27 -3 23 -5 86 86 NNW 17 28 29.88 1012 10 16 0.00 0.00
1:56 am 01:56 Cloudy with Light Snow 27 -2.8 23 -5 85 85 N 17 28 29.80 1009 9 14 0.00 0.00
2:36 am 02:36 Cloudy 27 -3 23 -5 86 86 NNW 21 33 29.87 1011 10 16 0.00 0.00
2:56 am 02:56 Cloudy 27 -2.8 23 -5 85 85 NNW 17 28 29.79 1009 10 16 0.00 0.00
3:56 am 03:56 Cloudy 27 -2.8 22 -5.6 81 81 NNW 21 33 29.80 1009 10 16 0.00 0.00
4:56 am 04:56 Cloudy N/A N/A N/A NNW 17 28 N/A 10 16 0.00 0.00
5:56 am 05:56 Cloudy 27 -2.8 21 -6.1 78 78 NNW 15 24 29.81 1010 10 16 0.00 0.00
6:56 am 06:56 Cloudy 27 -2.8 21 -6.1 78 78 NNW 16 26 29.83 1010 10 16 0.00 0.00
7:56 am 07:56 Cloudy 26 -3.3 21 -6.1 81 81 NW 13 20 29.85 1011 10 16 0.00 0.00
8:45 am 08:45 Partly Cloudy 28 -2 21 -6 74 74 NW 14 22 29.92 1013 10 16 0.00 0.00
8:56 am 08:56 Mostly Sunny 29 -1.7 22 -5.6 75 75 NW 14 22 29.87 1011 10 16 0.00 0.00
9:56 am 09:56 Mostly Sunny 31 -0.6 24 -4.4 76 76 NNW 16 26 29.88 1012 10 16 0.00 0.00
10:56 am 10:56 Mostly Cloudy 35 1.7 25 -3.9 67 67 NNW 17 28 29.89 1012 10 16 0.00 0.00
11:07 am 11:07 Partly Cloudy 34 1 25 -4 70 70 NNW 13 20 29.92 1013 10 16 0.00 0.00
11:14 am 11:14 Mostly Cloudy 34 1 25 -4 70 70 N 15 24 29.93 1014 10 16 0.00 0.00
11:24 am 11:24 Mostly Sunny 34 1 25 -4 70 70 NNW 15 24 29.93 1014 10 16 0.00 0.00
11:56 am 11:56 Mostly Cloudy 36 2.2 26 -3.3 67 67 N 15 24 29.89 1012 10 16 0.00 0.00
12:11 pm 12:11 Partly Cloudy 37 3 27 -3 65 65 NNW 13 20 29.90 1013 10 16 0.00 0.00
12:56 pm 12:56 Sunny 40 4.4 24 -4.4 53 53 NNW 12 19 29.88 1012 10 16 0.00 0.00
1:56 pm 13:56 Sunny 43 6.1 24 -4.4 47 47 N 14 22 29.87 1012 10 16 0.00 0.00
2:56 pm 14:56 Sunny 46 7.8 23 -5 40 40 NNW 7 11 29.86 1011 10 16 0.00 0.00
3:56 pm 15:56 Sunny 48 8.9 22 -5.6 36 36 VRB 5 7 29.84 1011 10 16 0.00 0.00
4:56 pm 16:56 Sunny 51 10.6 21 -6.1 31 31 VRB 6 9 29.81 1010 10 16 0.00 0.00
5:56 pm 17:56 Sunny 51 10.6 21 -6.1 31 31 NW 5 7 29.84 1010 10 16 0.00 0.00
6:56 pm 18:56 Sunny 50 10 22 -5.6 33 33 W 7 11 29.84 1011 10 16 0.00 0.00
7:56 pm 19:56 Sunny 48 8.9 22 -5.6 36 36 Calm 29.86 1011 10 16 0.00 0.00
8:56 pm 20:56 Clear 43 6.1 22 -5.6 43 43 Calm 29.87 1012 10 16 0.00 0.00
9:56 pm 21:56 Clear 41 5 21 -6.1 45 45 SSE 3 6 29.88 1012 10 16 0.00 0.00
10:56 pm 22:56 Clear 36 2.2 24 -4.4 62 62 S 5 7 29.89 1012 10 16 0.00 0.00
11:56 pm 23:56 Clear 37 2.8 23 -5 57 57 SSW 5 7 29.90 1013 10 16 0.00 0.00

Powered by AerisWeather